Regional Weather Roundup
Issued by NWS

Home | Current Version | Previous Version | Text Only | Print | Product List | Glossary On
Versions: 1 2 3 4 5 6 7 8 9 10 11 12 13 14 15 16 17 18 19 20 21 22 23 24 25 26 27 28 29 30 31 32 33 34 35 36 37 38 39 40 41 42 43 44 45 46 47 48 49 50
000
ASUS44 KFWD 252201
RWRTX
NORTH TEXAS HOURLY WEATHER ROUNDUP
NATIONAL WEATHER SERVICE FORT WORTH TX
500 PM CDT MON JUL 25 2016

NOTE: "FAIR" INDICATES FEW OR NO CLOUDS BELOW 12,000 FEET WITH NO
SIGNIFICANT WEATHER AND/OR OBSTRUCTIONS TO VISIBILITY.

TXZ118-119-252300-
DALLAS/FORT WORTH METROPLEX

CITY           SKY/WX    TMP DP  RH WIND       PRES   REMARKS
DFW AIRPORT    CLOUDY    94  70  45 E14       29.89R THUNDER HX 100
DALLAS LOVE    CLOUDY    91  69  48 NE13G23   29.88S THUNDER HX  96
FTW MEACHAM    CLOUDY    99  66  33 NE8       29.88S HX 103
DAL-EXECUTIVE  LGT RAIN  87  69  54 E6        29.89S HX  91
FTW-ALLIANCE   CLOUDY    95  71  45 NE7       29.88S HX 102
FTW-NAS-JRB    CLOUDY    94  70  45 N10       29.89S HX 100
FTW-SPINKS     PTSUNNY   93  72  49 E22G32    29.91R HX 100
ARLINGTON      CLOUDY    90  72  55 E14       29.90R HX  97
GRAND PRAIRIE  SUNNY     91  68  46 E13G21    29.91R HX  95
ADDISON        TSTM      88  73  62 E17G26    29.90S HX  96
MESQUITE       PTSUNNY   81  77  89 NW5       29.90F
LANCASTER      CLOUDY    87  69  54 NE5       29.90S HX  91
$$

TXZ091>094-102>105-117-120-121-131>134-252300-
NORTH CENTRAL TEXAS

CITY           SKY/WX    TMP DP  RH WIND       PRES   REMARKS
SHRMAN/DENISON NOT AVBL
BOWIE          PTSUNNY   94  72  48 E9G21     29.91S HX 101
BRIDGEPORT     MOSUNNY   97  72  44 E9        29.92S HX 105
DECATUR        PTSUNNY   97  69  39 E10       29.91F HX 102
DENTON         CLOUDY    96  71  44 E7        29.88F HX 103
MCKINNEY       CLOUDY    87  71  58 CALM      29.92R THUNDER HX  93
GREENVILLE     CLOUDY    90  70  51 N6        29.94R THUNDER HX  95
ROCKWALL       CLOUDY    86  71  60 N8        29.90F THUNDER HX  91
TERRELL        PTSUNNY   88  71  57 VRB3      29.90F HX  94
WAXAHACHIE     LGT RAIN  81  72  73 CALM      29.92R
CLEBURNE       CLOUDY    99  70  39 E14G31    29.91R HX 105
GRANBURY       SUNNY     99  63  30 NE9       29.89S HX 101
$$

TXZ083>090-098>101-113>116-127>130-139>142-154-155-252300-
WESTERN NORTH TEXAS

CITY           SKY/WX    TMP DP  RH WIND       PRES   REMARKS
WICHITA FALLS  SUNNY    101  67  32 E8        29.88F HX 106
WF-KICKAPOO    SUNNY    101  61  26 N7        29.90F HX 102
VERNON         SUNNY    100  55  22 E8        29.92S HX  98
ABILENE        SUNNY     99  63  30 NE9       29.92F HX 101
CISCO          CLOUDY    97  61  30 E8        29.94F HX  97
GRAHAM         SUNNY    101  67  32 E12       29.88S HX 106
MINERAL WELLS  MOSUNNY   99  68  36 E9        29.88S HX 104
STEPHENVILLE   CLOUDY   100  62  29 E6        29.93S HX 101
COMANCHE       CLOUDY   100  64  30 E3        29.90F HX 103
COLEMAN        MOSUNNY  100  59  26 NE6       29.92F HX 100
$$

TXZ143>147-156>162-174-175-252300-
CENTRAL TEXAS

CITY           SKY/WX    TMP DP  RH WIND       PRES   REMARKS
WACO           HVY RAIN  88  72  58 E12G26    29.87R HX  94
WACO-TSTC      PTSUNNY   88  72  58 S5        29.87R THUNDER HX  94
WACO-MCGREGOR  CLOUDY    94  71  47 E15G23    29.86  HX 101
HILLSBORO      PTSUNNY   84  68  58 NE20G26   29.90R
CORSICANA      CLOUDY    87  75  67 E9        29.91S HX  96
MEXIA          CLOUDY    85  74  69 NW13G18   29.89R HX  93
HEARNE         RAIN      80  71  76 NE6       29.89F
CAMERON        LGT RAIN  81  74  80 W3        29.91R
TEMPLE         CLOUDY    90  73  57 E16G25    29.89R HX  98
KILLEEN        NOT AVBL
KILLEEN-SKYLRK MOSUNNY   96  72  45 E10       29.88S HX 104
HAMILTON       CLOUDY    97  65  34 NE15G22   29.91S HX  99
LAMPASAS       SUNNY     99  66  33 N5        29.88F HX 103
$$

TXZ095>097-106>112-122>126-135>138-148>153-164>167-252300-
EAST TEXAS

CITY           SKY/WX    TMP DP  RH WIND       PRES   REMARKS
PARIS          CLOUDY    82  70  65 N7        29.92F
SULPHUR SPRNGS MOSUNNY   85  71  61 SE8       29.92R HX  90
MOUNT PLEASANT SUNNY     96  68  39 NE10G16   29.90S HX 101
GILMER         MOSUNNY   94  72  49 E7G16     29.89S HX 101
MINEOLA          N/A    N/A N/A N/A MISG        N/A
TYLER          CLOUDY    80  73  79 S6        29.90S
LONGVIEW       MOSUNNY   94  74  52 E13       29.88F HX 104
MARSHALL       SUNNY     92  69  46 E7        29.92F HX  97
ATHENS         LGT RAIN  77  77 100 S3        29.90F
PALESTINE      CLOUDY    82  74  74 NE5       29.92S
JACKSONVILLE   CLOUDY    81  73  77 CALM      29.93F
HENDERSON      CLOUDY    79  76  90 CALM      29.91F
CENTER         PTCLDY    95  73  48 E9        29.89F HX 104
NACOGDOCHES    CLOUDY   N/A N/A N/A NW6       29.87F
LUFKIN         CLOUDY    84  75  74 VRB3      29.91R HX  92
$$

SUPPLEMENTAL OBSERVATIONS (CENTRAL)

CITY           SKY/WX    TMP DP  RH WIND       PRES   REMARKS
$$

SUPPLEMENTAL OBSERVATIONS (WEST)

CITY           SKY/WX    TMP DP  RH WIND       PRES   REMARKS
$$

SUPPLEMENTAL OBSERVATIONS (EAST)

CITY           SKY/WX    TMP DP  RH WIND       PRES   REMARKS
$$

SUPPLEMENTAL OBSERVATIONS ARE A COLLECTION OF AUTOMATED INSTRUMENTS
THAT ARE MAINTAINED BY A VARIETY OF FEDERAL AND STATE AGENCIES.
CERTAIN ELEMENTS...SUCH AS HUMIDITY VALUES AND SUSTAINED WIND
SPEEDS...MAY BE APPROXIMATED.





USA.gov is the U.S. government's official web portal to all federal, state and local government web resources and services.